This is the latest recevied weather packets stored in our database for station/object SR6NWB-11. If no packets are shown the sender has not sent any weather packets the latest 10 day(s).
| Time | Temp. | Humidity | Pressure | Rain* | Wind** | Luminosity | Snow |
|---|---|---|---|---|---|---|---|
| 1777609986 | 6.67° C | 60% | 1030.4 hPa | 0 mm | - | - | - |
| 1777609416 | 6.11° C | 60% | 1030.4 hPa | 0 mm | - | - | - |
| 1777608826 | 6.67° C | 59% | 1030.4 hPa | 0 mm | - | - | - |
| 1777608242 | 6.67° C | 59% | 1030.5 hPa | 0 mm | - | - | - |
| 1777607691 | 6.67° C | 59% | 1030.5 hPa | 0 mm | - | - | - |
| 1777607106 | 6.67° C | 59% | 1030.4 hPa | 0 mm | - | - | - |
| 1777606616 | 6.67° C | 59% | 1030.4 hPa | 0 mm | - | - | - |
| 1777606131 | 6.67° C | 59% | 1030.5 hPa | 0 mm | - | - | - |
| 1777605641 | 6.67° C | 58% | 1030.5 hPa | 0 mm | - | - | - |
| 1777605136 | 6.67° C | 58% | 1030.4 hPa | 0 mm | - | - | - |
| 1777604541 | 6.67° C | 58% | 1030.4 hPa | 0 mm | - | - | - |
| 1777604056 | 6.67° C | 58% | 1030.4 hPa | 0 mm | - | - | - |
| 1777603461 | 6.67° C | 57% | 1030.3 hPa | 0 mm | - | - | - |
| 1777602971 | 6.67° C | 57% | 1030.4 hPa | 0 mm | - | - | - |
| 1777602480 | 6.67° C | 57% | 1030.3 hPa | 0 mm | - | - | - |
| 1777601956 | 6.67° C | 56% | 1030.3 hPa | 0 mm | - | - | - |
| 1777584351 | 7.22° C | 44% | 1030.8 hPa | 0 mm | - | - | - |
| 1777582156 | 7.22° C | 43% | 1030.9 hPa | 0 mm | - | - | - |
| 1777579516 | 7.22° C | 42% | 1030.9 hPa | 0 mm | - | - | - |
| 1777577356 | 7.22° C | 40% | 1031 hPa | 0 mm | - | - | - |
| 1777576756 | 7.22° C | 40% | 1030.9 hPa | 0 mm | - | - | - |
| 1777576176 | 7.22° C | 40% | 1030.8 hPa | 0 mm | - | - | - |
| 1777568661 | 9.44° C | 34% | 1030.7 hPa | 0 mm | - | - | - |
| 1777563311 | 12.78° C | 28% | 1030.8 hPa | 0 mm | - | - | - |
| 1777562756 | 12.78° C | 28% | 1030.8 hPa | 0 mm | - | - | - |
* Rain latest hour (hover to see other rain measurements)
** Current wind speed in m/s (hover to see current wind gust speed)